[[{"header":{"parameterUnit":"m.s-1","parameterCategory":1,"la1":30.2991,"la2":30.254,"lo1":-89.0895,"lo2":-89.0444,"dy":0.0017,"dx":0.0017,"nx":28,"ny":28,"refTime":"2023-04-17T21:00:00:Z","depth":0,"parameterNumber":2,"parameterNumberName":"U-component_of_WINDS"},"data":[0,0,0,0,0,0,0,0,0,0,0,0,0,0,0,0,0,0,0,0,0,0,0,0,0,0,0,0,0,0,0,0,0,0,0,0,0,0,0,0,0,0,0,0,0,0,0,0,0,0,0,0,0,0,0,0,0,0,-5.0309,-5.0309,0,-5.0341,-5.0341,-5.0341,-5.0195,-5.0191,-5.0187,-5.0183,-5.0215,-5.022,-5.0225,0,0,0,0,0,0,0,0,0,0,0,0,0,-5.0121,-5.0125,-5.0309,-5.0309,-5.0309,-5.0341,-5.0341,-5.0342,-5.0196,-5.0191,-5.0186,-5.0181,-5.0214,-5.0219,-5.0225,0,0,0,0,0,0,0,0,0,0,0,0,0,-5.0183,-5.0126,-5.0308,-5.0241,-5.0235,-5.0341,-5.0341,-5.0342,-5.0197,-5.0191,-5.0184,-5.0178,-5.0212,-5.0219,-5.0226,-5.0399,0,0,-5.0248,-5.0251,0,0,0,0,0,0,0,0,-5.0179,-5.019,-5.025,-5.0245,-5.0239,-5.0257,-5.0286,-5.0361,-5.0199,-5.0211,-5.0183,-5.0175,-5.0234,-5.0239,-5.0259,-5.04,-5.0401,-5.0249,-5.0253,-5.0256,-5.0258,0,0,0,0,0,0,0,-5.0175,-5.0187,-5.0321,-5.0251,-5.0244,-5.0208,-5.021,-5.03,-5.0258,-5.021,-5.0199,-5.0205,-5.023,-5.0253,-5.0259,-5.0402,-5.0249,-5.0255,-5.0259,-5.0262,-5.0684,-5.0691,0,0,0,0,0,0,-5.018,-5.0185,-5.032,-5.0322,-5.0193,-5.0217,-5.0219,-5.0258,-5.0257,-5.0251,-5.021,-5.0198,-5.0244,-5.0251,-5.026,-5.0459,-5.0256,-5.0263,-5.0267,-5.0677,-5.0686,-5.0693,0,0,0,0,0,0,-5.0176,-5.0193,-5.0319,-5.0251,-5.0264,-5.0227,-5.0272,-5.0262,-5.0284,-5.0257,-5.0249,-5.0241,-5.0239,-5.0249,-5.0365,-5.0458,-5.0266,-5.0273,-5.0669,-5.068,-5.0689,-5.0862,0,0,0,0,0,0,-5.0172,-5.0193,-5.0258,-5.0253,-5.0268,-5.0424,-5.0278,-5.0267,-5.0297,-5.0281,-5.0284,-5.0278,-5.0235,-5.0355,-5.0372,-5.0465,-5.0278,-5.0661,-5.0674,-5.0686,-5.0848,-5.0877,-5.0902,0,0,0,0,0,-5.0165,-5.0306,-5.0262,-5.0279,-5.0349,-5.043,-5.0438,-5.0385,-5.0306,-5.037,-5.0353,-5.0278,-5.0447,-5.0368,-5.0386,-5.0483,-5.0654,-5.067,-5.0685,-5.0835,-5.0871,-5.0901,0,0,0,0,0,0,-5.0322,-5.0304,-5.0255,-5.0398,-5.0417,-5.0405,-5.0484,-5.0425,-5.0465,-5.0449,-5.0381,-5.0383,-5.051,-5.0508,-5.0421,-5.0649,-5.0537,-5.0556,-5.0645,-5.0678,-5.0705,-5.0701,-5.0285,0,0,0,0,0,-5.0374,-5.0441,-5.0421,-5.0549,-5.0561,-5.0522,-5.0555,-5.0513,-5.0529,-5.0536,-5.0527,-5.0546,-5.0602,-5.0641,-5.0692,-5.0848,-5.0845,-5.0924,-5.0951,-5.0973,-5.099,-5.1071,-5.1104,-5.0744,-5.0744,-5.0743,0,0,-5.048,-5.0478,-5.0525,-5.0581,-5.059,-5.066,-5.0529,-5.061,-5.0661,-5.0548,-5.0655,-5.065,-5.0666,-5.0803,-5.0862,-5.0805,-5.109,-5.0993,-5.1011,-5.1015,-5.109,-5.1124,-5.1155,-5.0754,-5.0752,-5.0751,0,0,-5.0708,-5.0716,-5.0821,-5.0834,-5.085,-5.0823,-5.0849,-5.0847,-5.0839,-5.0946,-5.0862,-5.0923,-5.1023,-5.1037,-5.1057,-5.1294,-5.1225,-5.1313,-5.1453,-5.1532,-5.156,-5.1585,-5.1667,-5.1697,-5.133,-5.1331,-5.1331,0,-5.0838,-5.0941,-5.0884,-5.0969,-5.0996,-5.0898,-5.1004,-5.1019,-5.1052,-5.1072,-5.1008,-5.1131,-5.1135,-5.1272,-5.133,-5.1351,-5.1377,-5.131,-5.1561,-5.1585,-5.1608,-5.1684,-5.1716,-5.1341,-5.134,-5.1339,-5.1338,0,-5.1098,-5.1171,-5.1255,-5.1288,-5.1324,-5.1421,-5.1378,-5.1422,-5.1377,-5.1358,-5.1468,-5.147,-5.1518,-5.1549,-5.1507,-5.1681,-5.1644,-5.1573,-5.1457,-5.1653,-5.1724,-5.1753,-5.1355,-5.1352,-5.1349,-5.1346,0,0,-5.1422,-5.1424,-5.1455,-5.1468,-5.148,-5.1535,-5.1627,-5.1675,-5.1713,-5.174,-5.1813,-5.1901,-5.1834,-5.1858,-5.1817,-5.1887,-5.2071,-5.1806,-5.1805,-5.1852,-5.226,-5.2311,-5.2346,-5.2028,-5.2033,-5.2038,-5.2258,0,-5.1644,-5.1799,-5.1751,-5.1908,-5.1974,-5.1883,-5.1963,-5.1979,-5.1964,-5.2017,-5.2001,-5.2062,-5.1971,-5.1985,-5.2051,-5.2035,-5.2151,-5.2019,-5.2094,-5.2097,-5.2088,-5.2384,-5.2438,-5.2645,-5.2285,-5.229,-5.2293,0,-5.1921,-5.1958,-5.2122,-5.2121,-5.2147,-5.222,-5.2259,-5.2313,-5.2329,-5.2313,-5.234,-5.2285,-5.2374,-5.2263,-5.2384,-5.2295,-5.2324,-5.2321,-5.2328,-5.2329,-5.2204,-5.239,-5.271,-5.274,-5.2337,-5.2334,-5.233,0,-5.2137,-5.2229,-5.2337,-5.2352,-5.2356,-5.2408,-5.2412,-5.2422,-5.2454,-5.249,-5.2509,-5.2556,-5.258,-5.2617,-5.2575,-5.2498,-5.2703,-5.2588,-5.269,-5.2691,-5.2733,-5.273,-5.3059,-5.276,-5.2759,-5.2758,-5.2758,0,-5.2386,-5.2489,-5.2434,-5.2501,-5.2613,-5.2558,-5.2671,-5.2665,-5.2675,-5.2738,-5.2665,-5.2726,-5.2669,-5.2725,-5.2694,-5.2798,-5.2811,-5.2799,-5.2789,-5.2803,-5.2804,-5.2818,-5.2801,-5.2767,-5.2765,-5.2763,-5.2762,0,-5.2644,-5.2612,-5.2724,-5.2719,-5.272,-5.2803,-5.2798,-5.2859,-5.284,-5.2921,-5.2937,-5.2907,-5.2969,-5.2933,-5.2997,-5.2976,-5.311,-5.3083,-5.3105,-5.3095,-5.3198,-5.3188,-5.3543,-5.3586,-5.3263,-5.3267,-5.3269,0,-5.2803,-5.288,-5.2883,-5.292,-5.2929,-5.2991,-5.3023,-5.2973,-5.3009,-5.3034,-5.3092,-5.3149,-5.319,-5.3295,-5.3278,-5.3326,-5.3296,-5.3418,-5.3303,-5.3315,-5.3294,-5.3288,-5.3294,-5.344,-5.3444,-5.3447,-5.3449,0,-5.3087,-5.3068,-5.3117,-5.3161,-5.3202,-5.3234,-5.3261,-5.3296,-5.3246,-5.3291,-5.3354,-5.3387,-5.3452,-5.3508,-5.355,-5.3553,-5.3493,-5.3487,-5.3512,-5.3525,-5.3533,-5.3527,-5.3163,-5.3477,-5.3474,-5.3472,-5.3471,-5.347,-5.3297,-5.3361,-5.3373,-5.343,-5.3445,-5.3472,-5.3528,-5.3517,-5.3568,-5.3617,-5.3586,-5.366,-5.3674,-5.3724,-5.3736,-5.3792,-5.3743,-5.3781,-5.379,-5.3799,-5.3811,-5.3529,-5.3801,-5.38,-5.3799,-5.3798,-5.3798,0,-5.3574,-5.3578,-5.3632,-5.3671,-5.3716,-5.3657,-5.3684,-5.3725,-5.3791,-5.381,-5.3853,-5.3925,-5.398,-5.3969,-5.4018,-5.4066,-5.404,-5.408,-5.4074,-5.4075,-5.3854,-5.3825,-5.4101,-5.4101,-5.4101,-5.4101,-5.4101,-5.4101,-5.3723,-5.3826,-5.3809,-5.3919,-5.3922,-5.3994,-5.4014,-5.4038,-5.4052,-5.4136,-5.4181,-5.4174,-5.4181,-5.4231,-5.4278,-5.4274,-5.4293,-5.4344,-5.4329,-5.4121,-5.4091,-5.4062,-5.4035,-5.435,-5.435,-5.4545,-5.4546,-5.4548]},{"header":{"parameterUnit":"m.s-1","parameterCategory":1,"la1":30.2991,"la2":30.254,"lo1":-89.0895,"lo2":-89.0444,"dy":0.0017,"dx":0.0017,"nx":28,"ny":28,"refTime":"2023-04-17T21:00:00:Z","depth":0,"parameterNumber":3,"parameterNumberName":"V-component_of_WINDS"},"data":[0,0,0,0,0,0,0,0,0,0,0,0,0,0,0,0,0,0,0,0,0,0,0,0,0,0,0,0,0,0,0,0,0,0,0,0,0,0,0,0,0,0,0,0,0,0,0,0,0,0,0,0,0,0,0,0,0,0,1.8924,1.8923,0,1.8761,1.876,1.8758,1.8618,1.8616,1.8614,1.8613,1.8442,1.8439,1.8436,0,0,0,0,0,0,0,0,0,0,0,0,0,1.9112,1.9109,1.8925,1.8923,1.8921,1.8762,1.8759,1.8757,1.8618,1.8616,1.8614,1.8612,1.8443,1.8439,1.8435,0,0,0,0,0,0,0,0,0,0,0,0,0,1.8998,1.9108,1.8925,1.8832,1.8822,1.8762,1.8759,1.8757,1.8618,1.8616,1.8614,1.8611,1.8444,1.8439,1.8435,1.8453,0,0,1.8421,1.8419,0,0,0,0,0,0,0,0,1.9004,1.8991,1.8848,1.8838,1.8827,1.8708,1.8762,1.8655,1.8619,1.8696,1.8613,1.861,1.8532,1.852,1.8494,1.8445,1.8437,1.842,1.8417,1.8415,1.8414,0,0,0,0,0,0,0,1.9012,1.8997,1.886,1.8846,1.8833,1.8797,1.8778,1.8741,1.8629,1.8689,1.8678,1.8661,1.8526,1.8499,1.8489,1.8435,1.842,1.8416,1.8413,1.8411,1.8391,1.8394,0,0,0,0,0,0,1.9035,1.9005,1.8865,1.8855,1.8912,1.8796,1.8775,1.8748,1.8629,1.8608,1.8663,1.8655,1.8508,1.8495,1.8483,1.8495,1.8415,1.8411,1.8408,1.8389,1.8392,1.8394,0,0,0,0,0,0,1.904,1.9024,1.8872,1.8927,1.8905,1.8795,1.8766,1.8746,1.8719,1.8609,1.8588,1.8657,1.8506,1.8489,1.8461,1.8487,1.8409,1.8405,1.8387,1.839,1.8393,1.8521,0,0,0,0,0,0,1.9046,1.9027,1.9033,1.8928,1.8902,1.8855,1.8768,1.8745,1.8712,1.87,1.8598,1.8579,1.8503,1.8469,1.8457,1.8479,1.8401,1.8384,1.8388,1.8392,1.8514,1.8528,1.8541,0,0,0,0,0,1.9053,1.9074,1.9034,1.9018,1.8908,1.8856,1.8841,1.8755,1.8715,1.872,1.8649,1.8582,1.8487,1.8468,1.8452,1.8474,1.8382,1.8387,1.8392,1.8508,1.8525,1.854,0,0,0,0,0,0,1.9183,1.9059,1.9013,1.9001,1.8941,1.8833,1.8836,1.8776,1.8724,1.8715,1.8609,1.8587,1.8571,1.8519,1.85,1.8485,1.8425,1.8428,1.8519,1.8534,1.8548,1.8559,1.8397,0,0,0,0,0,1.9211,1.9181,1.9073,1.9073,1.9046,1.8947,1.8921,1.886,1.8792,1.8765,1.8692,1.8628,1.8583,1.8556,1.8509,1.8506,1.8481,1.8514,1.8527,1.8539,1.8541,1.8535,1.8548,1.8411,1.8411,1.8411,0,0,1.9267,1.9196,1.9183,1.9098,1.9044,1.9013,1.8926,1.8897,1.8873,1.876,1.873,1.8675,1.8596,1.8581,1.857,1.8537,1.8574,1.8545,1.8555,1.8551,1.8542,1.8555,1.8567,1.8415,1.8414,1.8413,0,0,1.9354,1.9298,1.9291,1.924,1.9159,1.9094,1.9093,1.8994,1.8954,1.8922,1.8837,1.8806,1.8732,1.8679,1.8643,1.8712,1.8648,1.87,1.8769,1.8764,1.8775,1.8784,1.8808,1.8818,1.8703,1.8703,1.8704,0,1.9433,1.9386,1.9295,1.9272,1.9237,1.9136,1.9128,1.9082,1.899,1.8968,1.8933,1.8838,1.8778,1.8749,1.8766,1.874,1.8734,1.871,1.8781,1.8789,1.8796,1.8817,1.8827,1.871,1.8709,1.8709,1.8708,0,1.9487,1.9455,1.946,1.9376,1.9341,1.9326,1.9233,1.9208,1.9151,1.9089,1.9058,1.8983,1.8919,1.8907,1.885,1.887,1.8852,1.8801,1.8739,1.8818,1.8836,1.8843,1.872,1.8717,1.8715,1.8714,0,0,1.9649,1.9517,1.952,1.9481,1.9386,1.9358,1.9339,1.9278,1.9259,1.92,1.9179,1.912,1.9072,1.9031,1.8967,1.8964,1.9022,1.8912,1.8908,1.8934,1.9039,1.9077,1.9088,1.898,1.8981,1.8982,1.9045,0,1.9719,1.9679,1.9598,1.9583,1.9552,1.9457,1.9439,1.9379,1.9321,1.9285,1.922,1.9179,1.912,1.9094,1.9087,1.9017,1.9042,1.9012,1.8959,1.8958,1.898,1.9098,1.9138,1.9201,1.9052,1.9053,1.9054,0,1.9795,1.9744,1.9727,1.9634,1.9618,1.9604,1.9542,1.951,1.9439,1.9397,1.9352,1.9283,1.9256,1.9201,1.9161,1.9143,1.9116,1.9079,1.9079,1.9069,1.901,1.909,1.9219,1.9228,1.9064,1.9063,1.9063,0,1.9914,1.984,1.982,1.979,1.9682,1.9674,1.9628,1.9555,1.9524,1.947,1.9448,1.9391,1.936,1.9316,1.9233,1.9201,1.9203,1.914,1.9166,1.9168,1.9169,1.9169,1.9294,1.9155,1.9155,1.9155,1.9155,0,2.0,1.9993,1.9872,1.986,1.9849,1.9756,1.9747,1.9692,1.9629,1.9603,1.9517,1.9494,1.9386,1.9351,1.9286,1.9263,1.9249,1.9213,1.9196,1.922,1.9225,1.92,1.9193,1.9157,1.9157,1.9156,1.9156,0,2.013,2.0049,2.0021,1.9922,1.9897,1.9893,1.9807,1.9791,1.9729,1.9698,1.9685,1.9587,1.9541,1.9454,1.9384,1.934,1.933,1.9301,1.9355,1.9344,1.9373,1.9371,1.9485,1.9495,1.9352,1.9354,1.9355,0,2.0189,2.0182,2.0083,2.006,2.0019,1.9983,1.9952,1.986,1.983,1.975,1.9744,1.9691,1.9645,1.9576,1.9497,1.9443,1.941,1.9454,1.9401,1.9426,1.9409,1.941,1.9408,1.9465,1.9467,1.9469,1.947,0,2.0303,2.0264,2.0222,2.0167,2.0132,2.0084,2.0031,2.0017,1.9913,1.9884,1.9837,1.9801,1.973,1.9679,1.9614,1.9565,1.95,1.9488,1.949,1.9514,1.9546,1.9528,1.9386,1.9485,1.9484,1.9482,1.9482,1.9481,2.0397,2.0387,2.0316,2.0272,2.0224,2.0177,2.0157,2.0093,2.0053,1.9989,1.9937,1.9895,1.9824,1.9729,1.9685,1.9649,1.9618,1.9623,1.9623,1.9625,1.9635,1.9554,1.9637,1.9637,1.9636,1.9636,1.9635,0,2.0506,2.0456,2.0417,2.0347,2.0313,2.0258,2.0196,2.0171,2.0135,2.0076,2.0032,1.9978,1.9929,1.9848,1.9791,1.9778,1.9747,1.9766,1.9765,1.9755,1.9666,1.9669,1.9792,1.9792,1.9792,1.9792,1.9792,1.9792,2.0558,2.0536,2.0489,2.0442,2.0391,2.035,2.032,2.0276,2.0228,2.0173,2.0132,2.008,2.0011,1.9949,1.9901,1.9878,1.9861,1.9889,1.9857,1.9776,1.9761,1.9747,1.9749,1.9887,1.9887,1.9948,1.9949,1.9949]}]]